カタログに戻る

METEOR 3-3

運用中気象PO
NORAD 20305·PAYLOAD·🇷🇺 Russia

打ち上げ Oct 24, 1989 から Plesetsk Cosmodrome

Loading…

次のパス (今後24時間)

TLE

最新Source: Space-Track

元期: Sep 14, 2026, 08:43 UTC

1 20305U 89086A   26257.36334194 -.00000736  00000-0 -23265-2 0  9994
2 20305  82.5508  45.2889 0006047 312.6834  73.7078 13.04704566758244

AllMySatでMETEOR 3-3をリアルタイム追跡

Download on the App Store